Tracking 17631 objects as of 3-May-2016
HD Live streaming from Space Station
objects crossing your sky now

SL-16 DEB

Track SL-16 DEB now!
10-day predictions


NORAD ID: 36031
Int'l Code: 1996-051N
Perigee: 760.9 km
Apogee: 778.8 km
Inclination: 70.9 °
Period: 100.1 minutes
Semi major axis: 7140 km
RCS: 0.0057 m2 (small)
Launch date: September 4, 1996
Source: Commonwealth of Independent States (former USSR) (CIS)
Launch site: TYURATAM MISSILE AND SPACE COMPLEX (TTMTR)

Note: This is SATELLITE DEBRIS
Your satellite tracking list
Your tracking list is empty





NASA's NSSDC Master Catalog

Two Line Element Set (TLE):
1 36031U 96051N   16122.40074861 +.00004766 +00000-0 +15659-2 0  9997
2 36031 070.8554 125.4637 0012500 016.2568 101.5923 14.38732514339923
Source of the keplerian elements: AFSPC

N2YO: 437